星链-34294 (STARLINK-34294)

导读

STARLINK-34294是美国太空探索技术公司星链星座的一员,于2025年6月25日由美国发射升空。星链计划旨在构建全球卫星互联网星座,为全球各地用户提供高速互联网接入服务。该卫星加入后,进一步扩充了星链星座的规模,提升了星座服务覆盖范围与网络性能,推动全球低轨卫星互联网建设进程。

基本信息
目录编号:
64599
目录名称:
STARLINK-34294
国际标识:
2025-137F
轨道中心:
EARTH
卫星名称:
星链-34294
卫星全名:
星链-34294 (STARLINK-34294)
卫星状态:
在轨 (已飞行437 天)
发射日期:
2025-06-25 UTC
国别 :
美国 (US)
星等 :
--
轨道信息
数据来源 国际轨道数据 AOE轨道数据
星历时间 2026-09-05T12:59:42+0800
8小时前
查看轨道信息
2026-08-31T22:00:00+0800
4天前
查看轨道信息
半长轴 6840.832km 6840.925km
偏心率 0.0001166 0.0001082
轨道倾角 53.158° 53.159°
近地点辐角 106.828° 65.471°
升交点赤经 219.004° 240.625°
平近点角 253.285° 293.875°
近地点 461.897km 462.047km
远地点 463.493km 463.529km
周期 93.848分钟 93.849分钟
每日圈数 15.34403 15.343717
详细信息
固有亮度:
5
最大亮度:
2.5
卫星平台:
Starlink V1.0
覆盖范围:
全球
运营商:
太空探索技术公司
运营商所在国:
美国
制造商(研发单位):
太空探索技术公司
制造商所在国:
美国
使用方式:
暂无
卫星简介
Starlink 计划是 SpaceX 推出的全球卫星互联网项目,通过发射低轨道卫星,为全球尤其是偏远地区提供高速、低延迟的互联网服务。自 2019 年起,Starlink 已部署数千颗卫星,旨在缩小全球数字鸿沟,推动互联网普及。该项目还为军事、航空等行业提供通信支持,带来广泛经济效益。
2D轨道图
3D轨道图
轨道高度分析图
轨道倾角分析图
轨道综合分析图
查看轨道综合分析图
交会数据列表
事件ID 空间交会对象 最接近时刻(TCA) 交会距离 交会风险概率(CRP) 交会风险指数(CRI) 操作
CDM_260907-200005-477806-459921
2026-09-07T
20:00:58+0000
0.744 km
远距离
4.376947E-5 中风险 0.68
CDM_260907-212605-893406-459921
2026-09-07T
21:26:42+0000
0.637 km
远距离
3.6133E-5 中风险 0.66
CDM_260905-233305-212106-459921
2026-09-05T
23:33:49+0000
1.277 km
极远距离
9.17277E-6 低风险 0.54
CDM_260907-182705-477806-459921
2026-09-07T
18:27:11+0000
1.338 km
极远距离
6.000715E-6 低风险 0.51
CDM_260907-203905-893406-459921
2026-09-07T
20:39:48+0000
1.192 km
极远距离
4.46179E-6 低风险 0.48
CDM_260907-223905-317706-459921
2026-09-07T
22:39:57+0000
1.813 km
极远距离
3.296634E-6 低风险 0.45
CDM_260907-233105-926606-459921
2026-09-07T
23:31:39+0000
2.260 km
极远距离
1.87245E-6 低风险 0.4
CDM_260907-160405-186806-459921
2026-09-07T
16:04:56+0000
2.144 km
极远距离
1.355964E-6 低风险 0.38
CDM_260907-101306-459906-489222
OBJECT S (64892)
2026-09-07T
10:13:02+0000
2.550 km
极远距离
9.979813E-7 极低风险 0.35
CDM_260907-213405-477806-459921
2026-09-07T
21:34:46+0000
2.808 km
极远距离
9.684985E-7 极低风险 0.35